When you browse on this site, cookies collect data to enhance your experience and personalize the content and advertising you see.
Visit our Privacy Policy to learn more. By continuing to use the site, you agree to this use of cookies and data.
  • Em Portugal
  • Lista de países
  • Para 7 dias
  • Temperatura da água
  • Mapas de satélite
  • Mapa do tempo
  • Widgets de tempo
  • user-avatar
    Iniciar Sessão

    Previsão horária em Chernomorec

    Hoje, 16 Fevereiro, Sábado

    Tempo Temperatura Precipitação Vento Pressão Humidade
    00:00 +2°C° 0 mm 7 m/s 771 mmHg 75%
    01:00 +2°C° 0 mm 7 m/s 771 mmHg 76%
    02:00 +2°C° 0 mm 7 m/s 771 mmHg 77%
    03:00 0°C° 0 mm 7 m/s 771 mmHg 78%
    04:00 0°C° 0 mm 7 m/s 771 mmHg 79%
    05:00 +1°C° 0 mm 6 m/s 771 mmHg 80%
    06:00 +1°C° 0 mm 6 m/s 771 mmHg 80%
    07:00 +1°C° 0 mm 6 m/s 771 mmHg 80%
    08:00 -1°C° 0 mm 6 m/s 771 mmHg 80%
    09:00 +1°C° 0 mm 6 m/s 772 mmHg 77%
    10:00 +2°C° 0 mm 6 m/s 772 mmHg 74%
    11:00 +3°C° 0 mm 6 m/s 772 mmHg 71%
    12:00 +5°C° 0 mm 5 m/s 772 mmHg 68%
    13:00 +6°C° 0 mm 5 m/s 772 mmHg 66%
    14:00 +6°C° 0 mm 4 m/s 771 mmHg 63%
    15:00 +6°C° 0 mm 4 m/s 771 mmHg 64%
    16:00 +6°C° 0 mm 4 m/s 771 mmHg 65%
    17:00 +6°C° 0 mm 4 m/s 771 mmHg 67%
    18:00 +5°C° 0 mm 4 m/s 771 mmHg 69%
    19:00 +5°C° 0 mm 4 m/s 771 mmHg 72%
    20:00 +4°C° 0 mm 4 m/s 771 mmHg 75%
    21:00 +4°C° 0 mm 3 m/s 771 mmHg 76%
    22:00 +4°C° 0 mm 3 m/s 771 mmHg 77%
    23:00 +4°C° 0 mm 3 m/s 771 mmHg 78%

    Amanhã, 17 Fevereiro, Domingo

    Tempo Temperatura Precipitação Vento Pressão Humidade
    00:00 +3°C° 0 mm 3 m/s 771 mmHg 78%
    01:00 +3°C° 0 mm 3 m/s 771 mmHg 79%
    02:00 +4°C° 0 mm 2 m/s 771 mmHg 80%
    03:00 +4°C° 0 mm 2 m/s 771 mmHg 79%
    04:00 +3°C° 0 mm 2 m/s 770 mmHg 79%
    05:00 +3°C° 0 mm 2 m/s 770 mmHg 79%
    06:00 +3°C° 0 mm 2 m/s 770 mmHg 78%
    07:00 +4°C° 0 mm 2 m/s 770 mmHg 77%
    08:00 +4°C° 0 mm 2 m/s 770 mmHg 76%
    09:00 +5°C° 0 mm 2 m/s 770 mmHg 70%
    10:00 +8°C° 0 mm 1 m/s 770 mmHg 63%
    11:00 +10°C° 0 mm 1 m/s 770 mmHg 57%
    12:00 +10°C° 0 mm 1 m/s 770 mmHg 54%
    13:00 +11°C° 0 mm 1 m/s 769 mmHg 51%
    14:00 +12°C° 0 mm 1 m/s 769 mmHg 48%
    15:00 +12°C° 0 mm 1 m/s 769 mmHg 51%
    16:00 +12°C° 0 mm 1 m/s 768 mmHg 54%
    17:00 +10°C° 0 mm 0 m/s 768 mmHg 56%
    18:00 +10°C° 0 mm 1 m/s 768 mmHg 59%
    19:00 +10°C° 0 mm 1 m/s 768 mmHg 62%
    20:00 +9°C° 0 mm 1 m/s 768 mmHg 65%
    21:00 +8°C° 0 mm 1 m/s 768 mmHg 65%
    22:00 +7°C° 0 mm 2 m/s 768 mmHg 66%
    23:00 +7°C° 0 mm 2 m/s 768 mmHg 67%

    Depois de amanhã, 18 Fevereiro, Segunda-feira

    Tempo Temperatura Precipitação Vento Pressão Humidade
    00:00 +7°C° 0 mm 2 m/s 768 mmHg 67%
    01:00 +6°C° 0 mm 2 m/s 768 mmHg 68%
    02:00 +6°C° 0 mm 2 m/s 768 mmHg 69%
    03:00 +6°C° 0 mm 2 m/s 767 mmHg 69%
    04:00 +6°C° 0 mm 2 m/s 767 mmHg 68%
    05:00 +6°C° 0 mm 2 m/s 767 mmHg 68%
    06:00 +6°C° 0 mm 2 m/s 767 mmHg 67%
    07:00 +6°C° 0 mm 2 m/s 768 mmHg 66%
    08:00 +6°C° 0 mm 2 m/s 768 mmHg 65%
    09:00 +8°C° 0 mm 2 m/s 768 mmHg 60%
    10:00 +9°C° 0 mm 2 m/s 768 mmHg 54%
    11:00 +12°C° 0 mm 2 m/s 768 mmHg 49%
    12:00 +13°C° 0 mm 2 m/s 768 mmHg 48%
    13:00 +14°C° 0 mm 2 m/s 768 mmHg 48%
    14:00 +14°C° 0 mm 1 m/s 767 mmHg 47%
    15:00 +14°C° 0 mm 2 m/s 767 mmHg 52%
    16:00 +13°C° 0 mm 2 m/s 767 mmHg 56%
    17:00 +12°C° 0 mm 2 m/s 767 mmHg 61%
    18:00 +10°C° 0 mm 2 m/s 767 mmHg 65%
    19:00 +9°C° 0 mm 2 m/s 768 mmHg 70%
    20:00 +8°C° 0 mm 2 m/s 768 mmHg 74%
    21:00 +8°C° 0 mm 2 m/s 768 mmHg 75%
    22:00 +8°C° 0 mm 1 m/s 768 mmHg 76%
    23:00 +8°C° 0 mm 1 m/s 768 mmHg 77%

    19 Fevereiro, Terça-feira

    Tempo Temperatura Precipitação Vento Pressão Humidade
    00:00 +8°C° 0 mm 1 m/s 768 mmHg 79%
    01:00 +8°C° 0 mm 1 m/s 769 mmHg 80%
    02:00 +7°C° 0 mm 1 m/s 769 mmHg 81%
    03:00 +7°C° 0 mm 1 m/s 768 mmHg 81%
    04:00 +7°C° 0 mm 1 m/s 768 mmHg 82%
    05:00 +7°C° 0 mm 1 m/s 768 mmHg 82%
    06:00 +7°C° 0 mm 1 m/s 769 mmHg 82%
    07:00 +7°C° 0 mm 1 m/s 769 mmHg 82%
    08:00 +8°C° 0 mm 1 m/s 769 mmHg 82%
    09:00 +9°C° 0 mm 1 m/s 769 mmHg 76%
    10:00 +10°C° 0 mm 2 m/s 769 mmHg 70%
    11:00 +12°C° 0 mm 2 m/s 769 mmHg 64%
    12:00 +12°C° 0 mm 3 m/s 769 mmHg 63%
    13:00 +12°C° 0 mm 3 m/s 769 mmHg 61%
    14:00 +13°C° 0 mm 3 m/s 768 mmHg 59%
    15:00 +12°C° 0 mm 3 m/s 768 mmHg 63%
    16:00 +12°C° 0 mm 4 m/s 768 mmHg 68%
    17:00 +11°C° 0 mm 4 m/s 768 mmHg 72%
    18:00 +10°C° 0 mm 4 m/s 768 mmHg 77%
    19:00 +8°C° 0 mm 4 m/s 768 mmHg 82%
    20:00 +7°C° 0 mm 4 m/s 768 mmHg 87%
    21:00 +8°C° 0 mm 3 m/s 768 mmHg 88%
    22:00 +8°C° 0 mm 3 m/s 768 mmHg 88%
    23:00 +8°C° 0 mm 3 m/s 768 mmHg 88%

    20 Fevereiro, Quarta-feira

    Tempo Temperatura Precipitação Vento Pressão Humidade
    00:00 +7°C° 0 mm 2 m/s 768 mmHg 87%
    01:00 +7°C° 0 mm 2 m/s 768 mmHg 87%
    02:00 +7°C° 0 mm 2 m/s 767 mmHg 87%
    03:00 +7°C° 0 mm 2 m/s 767 mmHg 87%
    04:00 +7°C° 0 mm 2 m/s 767 mmHg 86%
    05:00 +6°C° 0 mm 2 m/s 767 mmHg 86%
    06:00 +7°C° 0 mm 2 m/s 767 mmHg 84%
    07:00 +7°C° 0 mm 2 m/s 767 mmHg 82%
    08:00 +7°C° 0 mm 2 m/s 767 mmHg 80%
    09:00 +9°C° 0 mm 2 m/s 767 mmHg 73%
    10:00 +12°C° 0 mm 2 m/s 767 mmHg 66%
    11:00 +13°C° 0 mm 2 m/s 767 mmHg 58%
    12:00 +14°C° 0 mm 2 m/s 767 mmHg 56%
    13:00 +15°C° 0 mm 2 m/s 766 mmHg 53%
    14:00 +16°C° 0 mm 2 m/s 766 mmHg 51%
    15:00 +16°C° 0 mm 2 m/s 766 mmHg 53%
    16:00 +15°C° 0 mm 2 m/s 766 mmHg 56%
    17:00 +15°C° 0 mm 2 m/s 766 mmHg 59%
    18:00 +14°C° 0 mm 2 m/s 766 mmHg 62%
    19:00 +13°C° 0 mm 2 m/s 766 mmHg 66%
    20:00 +12°C° 0 mm 2 m/s 767 mmHg 69%
    21:00 +10°C° 0 mm 2 m/s 767 mmHg 70%
    22:00 +10°C° 0 mm 2 m/s 767 mmHg 71%
    23:00 +10°C° 0 mm 2 m/s 767 mmHg 71%

    21 Fevereiro, Quinta-feira

    Tempo Temperatura Precipitação Vento Pressão Humidade
    00:00 +9°C° 0 mm 2 m/s 767 mmHg 71%
    01:00 +9°C° 0 mm 3 m/s 767 mmHg 72%
    02:00 +9°C° 0 mm 3 m/s 767 mmHg 72%
    03:00 +8°C° 0 mm 3 m/s 767 mmHg 72%
    04:00 +8°C° 0 mm 3 m/s 767 mmHg 72%
    05:00 +8°C° 0 mm 3 m/s 767 mmHg 73%
    06:00 +8°C° 0 mm 3 m/s 767 mmHg 73%
    07:00 +8°C° 0 mm 3 m/s 768 mmHg 72%
    08:00 +8°C° 0 mm 3 m/s 768 mmHg 72%
    09:00 +9°C° 0 mm 3 m/s 768 mmHg 66%
    10:00 +11°C° 0 mm 3 m/s 768 mmHg 61%
    11:00 +12°C° 0 mm 3 m/s 768 mmHg 55%
    12:00 +14°C° 0 mm 2 m/s 768 mmHg 54%
    13:00 +14°C° 0 mm 2 m/s 768 mmHg 53%
    14:00 +14°C° 0 mm 2 m/s 768 mmHg 52%
    15:00 +14°C° 0 mm 2 m/s 768 mmHg 56%
    16:00 +13°C° 0 mm 2 m/s 768 mmHg 60%
    17:00 +12°C° 0 mm 3 m/s 768 mmHg 63%
    18:00 +12°C° 0 mm 2 m/s 768 mmHg 68%
    19:00 +10°C° 0 mm 2 m/s 768 mmHg 74%
    20:00 +9°C° 0 mm 2 m/s 768 mmHg 79%
    21:00 +8°C° 0 mm 2 m/s 768 mmHg 79%
    22:00 +9°C° 0 mm 1 m/s 768 mmHg 80%
    23:00 +9°C° 0 mm 1 m/s 768 mmHg 81%
    Mostrar mais